Tracking 30258 objects as of 19-Feb-2025
HD Live streaming from Space Station
objects crossing your sky now

SPACEMOBILE-SSR04 DEB

Track SPACEMOBILE-SSR04 DEB now!
10-day predictions


NORAD ID: 62372
Int'l Code: 2024-163J
Perigee: 496.2 km
Apogee: 510.4 km
Inclination: 53.0 °
Period: 94.5 minutes
Semi major axis: 6874 km
RCS: Unknown
Launch date: September 12, 2024
Source: United States (US)
Launch site: AIR FORCE EASTERN TEST RANGE (AFETR)

Note: This is SATELLITE DEBRIS
Your satellite tracking list
Your tracking list is empty




NASA's NSSDC Master Catalog

Two Line Element Set (TLE):
1 62372U 24163J   25049.31098539  .00020729  00000-0  87487-3 0  9991
2 62372  52.9846  11.4710 0010339  99.0498 261.1667 15.23225389 20815
Source of the keplerian elements: AFSPC